Погода в Любимце

Россия / Псковская область     58°49′18″N   27°56′40″E
темп.,
°C
ветер,
м/с
пор.,
м/с
влажн.,
%
обл.,
%
осадки,
мм/ч
давл.,
гПа
погр.,
м
15 апреля, чт
чт1500:00+3ссв31078100 0.0 1025336
03:00+3св31174100 0.0 1026407
06:00+1ссв3977100 0.0 1027258
09:00+4св5105779 0.0 1028672
12:00+8св684226 0.0 10271172
15:00+10св693460 0.0 10261454
18:00+9св5940100 0.0 10261250
21:00+5св5125885 0.0 1027609
16 апреля, пт
пт1600:00+4св51369100 0.0 1027570
03:00+4св51273100 0.1 1026522
06:00+3св51276100 0.1 1026490
09:00+4св51369100 0.1 1026466
12:00+9всв61055100 0.0 1026763
15:00+12всв6951100 0.0 10261133
18:00+12всв51053100 0.0 10261089
21:00+9всв51255100 0.0 1027629
17 апреля, сб
сб1700:00+7всв4126111 0.0 1028518
03:00+5всв41271100 0.0 1028414
06:00+3всв41276100 0.0 1028368
09:00+7всв5106186 0.0 1029485
12:00+12в584795 0.0 1029969
15:00+14в5741100 0.0 10281358
18:00+14всв474086 0.0 10281278
21:00+8всв386046 0.0 1029154
18 апреля, вс
вс1800:00+6всв3107198 0.0 1030227
03:00+4всв38815 0.0 1030158
06:00+3всв398427 0.0 1030170
09:00+8в48595 0.0 1030429
12:00+13в46420 0.0 10291245
15:00+14всв45350 0.0 10291646
18:00+14в35405 0.0 10281686
21:00+8в25635 0.0 102978
19 апреля, пн
пн1900:00+6всв25695 0.0 102986
03:00+4в36783 0.0 1030110
06:00+3в37820 0.0 1030123
09:00+9в36600 0.0 1029353
12:00+13вюв35445 0.0 10291513
15:00+15вюв34388 0.0 10282026
18:00+14вюв344130 0.0 10271954
21:00+9в38666 0.0 1027157